Date_Time,Julian_Date,Latitude,Longitude,Instrument_Depth,U,V,Speed,Direction
(yyyy-mm-dd hh:mn:ss UTC),(JD),(+ deg. North),(+ deg. East),(m),(cm/s),(cm/s),(cm/s),(deg True)
1982-06-25 19:30:00 UTC,2445146.312500,29.6650,-93.4789,0076,2.46,-1.72,3.0000,125.0000
1982-06-25 20:00:00 UTC,2445146.333333,29.6650,-93.4789,0076,0.99,-0.14,1.0000,98.0000
1982-06-25 20:30:00 UTC,2445146.354167,29.6650,-93.4789,0076,-0.16,0.99,1.0000,351.0000
1982-06-25 21:00:00 UTC,2445146.375000,29.6650,-93.4789,0076,-0.55,1.92,2.0000,344.0000
1982-06-25 21:30:00 UTC,2445146.395833,29.6650,-93.4789,0076,-1.41,2.65,3.0000,332.0000
1982-06-25 22:00:00 UTC,2445146.416667,29.6650,-93.4789,0076,-3.15,3.89,5.0000,321.0000
1982-06-25 22:30:00 UTC,2445146.437500,29.6650,-93.4789,0076,-3.01,3.99,5.0000,323.0000
1982-06-25 23:00:00 UTC,2445146.458333,29.6650,-93.4789,0076,-2.50,4.33,5.0000,330.0000
1982-06-25 23:30:00 UTC,2445146.479167,29.6650,-93.4789,0076,-2.50,4.33,5.0000,330.0000
1982-06-26 00:00:00 UTC,2445146.500000,29.6650,-93.4789,0076,-1.22,2.74,3.0000,336.0000
1982-06-26 00:30:00 UTC,2445146.520833,29.6650,-93.4789,0076,2.33,1.89,3.0000,51.0000
1982-06-26 01:00:00 UTC,2445146.541667,29.6650,-93.4789,0076,4.91,0.95,5.0000,79.0000
1982-06-26 01:30:00 UTC,2445146.562500,29.6650,-93.4789,0076,3.99,0.21,4.0000,87.0000
1982-06-26 02:00:00 UTC,2445146.583333,29.6650,-93.4789,0076,0.99,-0.12,1.0000,97.0000
1982-06-26 02:30:00 UTC,2445146.604167,29.6650,-93.4789,0076,0.00,-0.00,0.0000,164.0000
1982-06-26 03:00:00 UTC,2445146.625000,29.6650,-93.4789,0076,-0.00,0.00,0.0000,303.0000
1982-06-26 03:30:00 UTC,2445146.645833,29.6650,-93.4789,0076,-0.00,0.00,0.0000,322.0000
1982-06-26 04:00:00 UTC,2445146.666667,29.6650,-93.4789,0076,0.00,-0.00,0.0000,155.0000
1982-06-26 04:30:00 UTC,2445146.687500,29.6650,-93.4789,0076,1.06,-1.70,2.0000,148.0000
1982-06-26 05:00:00 UTC,2445146.708333,29.6650,-93.4789,0076,1.34,-1.49,2.0000,138.0000
1982-06-26 05:30:00 UTC,2445146.729167,29.6650,-93.4789,0076,0.86,-0.52,1.0000,121.0000
1982-06-26 06:00:00 UTC,2445146.750000,29.6650,-93.4789,0076,0.00,-0.00,0.0000,97.0000
1982-06-26 06:30:00 UTC,2445146.770833,29.6650,-93.4789,0076,-0.54,0.84,1.0000,327.0000
1982-06-26 07:00:00 UTC,2445146.791667,29.6650,-93.4789,0076,-1.29,1.53,2.0000,320.0000
1982-06-26 07:30:00 UTC,2445146.812500,29.6650,-93.4789,0076,-3.02,2.62,4.0000,311.0000
1982-06-26 08:00:00 UTC,2445146.833333,29.6650,-93.4789,0076,-3.77,3.28,5.0000,311.0000
1982-06-26 08:30:00 UTC,2445146.854167,29.6650,-93.4789,0076,-3.86,4.60,6.0000,320.0000
1982-06-26 09:00:00 UTC,2445146.875000,29.6650,-93.4789,0076,-3.86,4.60,6.0000,320.0000
1982-06-26 09:30:00 UTC,2445146.895833,29.6650,-93.4789,0076,-4.10,2.87,5.0000,305.0000
1982-06-26 10:00:00 UTC,2445146.916667,29.6650,-93.4789,0076,-5.35,2.72,6.0000,297.0000
1982-06-26 10:30:00 UTC,2445146.937500,29.6650,-93.4789,0076,-6.06,3.50,7.0000,300.0000
1982-06-26 11:00:00 UTC,2445146.958333,29.6650,-93.4789,0076,-6.18,3.29,7.0000,298.0000
1982-06-26 11:30:00 UTC,2445146.979167,29.6650,-93.4789,0076,-7.65,2.34,8.0000,287.0000
1982-06-26 12:00:00 UTC,2445147.000000,29.6650,-93.4789,0076,-8.69,2.33,9.0000,285.0000
1982-06-26 12:30:00 UTC,2445147.020833,29.6650,-93.4789,0076,-9.40,3.42,10.0000,290.0000
1982-06-26 13:00:00 UTC,2445147.041667,29.6650,-93.4789,0076,-7.47,2.87,8.0000,291.0000
1982-06-26 13:30:00 UTC,2445147.062500,29.6650,-93.4789,0076,-7.79,1.80,8.0000,283.0000
1982-06-26 14:00:00 UTC,2445147.083333,29.6650,-93.4789,0076,-6.82,1.57,7.0000,283.0000
1982-06-26 14:30:00 UTC,2445147.104167,29.6650,-93.4789,0076,-5.64,2.05,6.0000,290.0000
1982-06-26 15:00:00 UTC,2445147.125000,29.6650,-93.4789,0076,-5.09,3.18,6.0000,302.0000
1982-06-26 15:30:00 UTC,2445147.145833,29.6650,-93.4789,0076,-4.85,3.53,6.0000,306.0000
1982-06-26 16:00:00 UTC,2445147.166667,29.6650,-93.4789,0076,-3.89,3.15,5.0000,309.0000
1982-06-26 16:30:00 UTC,2445147.187500,29.6650,-93.4789,0076,-2.42,4.37,5.0000,331.0000
1982-06-26 17:00:00 UTC,2445147.208333,29.6650,-93.4789,0076,-1.57,6.82,7.0000,347.0000
1982-06-26 17:30:00 UTC,2445147.229167,29.6650,-93.4789,0076,-2.78,8.56,9.0000,342.0000
1982-06-26 18:00:00 UTC,2445147.250000,29.6650,-93.4789,0076,-5.63,10.60,12.0000,332.0000
1982-06-26 18:30:00 UTC,2445147.270833,29.6650,-93.4789,0076,-5.82,10.50,12.0000,331.0000
1982-06-26 19:00:00 UTC,2445147.291667,29.6650,-93.4789,0076,-2.34,7.65,8.0000,343.0000
1982-06-26 19:30:00 UTC,2445147.312500,29.6650,-93.4789,0076,1.29,4.83,5.0000,15.0000
1982-06-26 20:00:00 UTC,2445147.333333,29.6650,-93.4789,0076,4.05,2.94,5.0000,54.0000
1982-06-26 20:30:00 UTC,2445147.354167,29.6650,-93.4789,0076,7.00,-0.12,7.0000,91.0000
1982-06-26 21:00:00 UTC,2445147.375000,29.6650,-93.4789,0076,6.62,-2.28,7.0000,109.0000
1982-06-26 21:30:00 UTC,2445147.395833,29.6650,-93.4789,0076,4.46,-2.27,5.0000,117.0000
1982-06-26 22:00:00 UTC,2445147.416667,29.6650,-93.4789,0076,3.00,0.00,3.0000,90.0000
1982-06-26 22:30:00 UTC,2445147.437500,29.6650,-93.4789,0076,3.32,2.24,4.0000,56.0000
1982-06-26 23:00:00 UTC,2445147.458333,29.6650,-93.4789,0076,2.70,1.32,3.0000,64.0000
1982-06-26 23:30:00 UTC,2445147.479167,29.6650,-93.4789,0076,1.04,-3.86,4.0000,165.0000
1982-06-27 00:00:00 UTC,2445147.500000,29.6650,-93.4789,0076,-0.94,-5.93,6.0000,189.0000
1982-06-27 00:30:00 UTC,2445147.520833,29.6650,-93.4789,0076,-3.06,-2.57,4.0000,230.0000
1982-06-27 01:00:00 UTC,2445147.541667,29.6650,-93.4789,0076,-3.98,-0.35,4.0000,265.0000
1982-06-27 01:30:00 UTC,2445147.562500,29.6650,-93.4789,0076,-2.88,-0.83,3.0000,254.0000
1982-06-27 02:00:00 UTC,2445147.583333,29.6650,-93.4789,0076,-1.09,-1.68,2.0000,213.0000
1982-06-27 02:30:00 UTC,2445147.604167,29.6650,-93.4789,0076,1.17,-3.83,4.0000,163.0000
1982-06-27 03:00:00 UTC,2445147.625000,29.6650,-93.4789,0076,1.94,-3.50,4.0000,151.0000
1982-06-27 03:30:00 UTC,2445147.645833,29.6650,-93.4789,0076,0.37,-2.98,3.0000,173.0000
1982-06-27 04:00:00 UTC,2445147.666667,29.6650,-93.4789,0076,-2.63,-5.39,6.0000,206.0000
1982-06-27 04:30:00 UTC,2445147.687500,29.6650,-93.4789,0076,-5.79,-6.89,9.0000,220.0000
1982-06-27 05:00:00 UTC,2445147.708333,29.6650,-93.4789,0076,-8.78,-8.18,12.0000,227.0000
1982-06-27 05:30:00 UTC,2445147.729167,29.6650,-93.4789,0076,-10.07,-9.73,14.0000,226.0000
1982-06-27 06:00:00 UTC,2445147.750000,29.6650,-93.4789,0076,-11.51,-11.11,16.0000,226.0000
1982-06-27 06:30:00 UTC,2445147.770833,29.6650,-93.4789,0076,-12.78,-9.63,16.0000,233.0000
1982-06-27 07:00:00 UTC,2445147.791667,29.6650,-93.4789,0076,-12.69,-5.92,14.0000,245.0000
1982-06-27 07:30:00 UTC,2445147.812500,29.6650,-93.4789,0076,-11.54,-3.31,12.0000,254.0000
1982-06-27 08:00:00 UTC,2445147.833333,29.6650,-93.4789,0076,-11.64,-2.90,12.0000,256.0000
1982-06-27 08:30:00 UTC,2445147.854167,29.6650,-93.4789,0076,-14.82,-2.35,15.0000,261.0000
1982-06-27 09:00:00 UTC,2445147.875000,29.6650,-93.4789,0076,-17.00,0.30,17.0000,271.0000
1982-06-27 09:30:00 UTC,2445147.895833,29.6650,-93.4789,0076,-17.73,3.13,18.0000,280.0000
1982-06-27 10:00:00 UTC,2445147.916667,29.6650,-93.4789,0076,-17.30,4.96,18.0000,286.0000
1982-06-27 10:30:00 UTC,2445147.937500,29.6650,-93.4789,0076,-16.57,7.03,18.0000,293.0000
1982-06-27 11:00:00 UTC,2445147.958333,29.6650,-93.4789,0076,-16.11,10.07,19.0000,302.0000
1982-06-27 11:30:00 UTC,2445147.979167,29.6650,-93.4789,0076,-14.77,11.96,19.0000,309.0000
1982-06-27 12:00:00 UTC,2445148.000000,29.6650,-93.4789,0076,-14.63,13.64,20.0000,313.0000
1982-06-27 12:30:00 UTC,2445148.020833,29.6650,-93.4789,0076,-13.44,13.43,19.0000,315.0000
1982-06-27 13:00:00 UTC,2445148.041667,29.6650,-93.4789,0076,-11.15,12.83,17.0000,319.0000
1982-06-27 13:30:00 UTC,2445148.062500,29.6650,-93.4789,0076,-8.81,10.88,14.0000,321.0000
1982-06-27 14:00:00 UTC,2445148.083333,29.6650,-93.4789,0076,-7.50,8.04,11.0000,317.0000
1982-06-27 14:30:00 UTC,2445148.104167,29.6650,-93.4789,0076,-6.30,4.93,8.0000,308.0000
1982-06-27 15:00:00 UTC,2445148.125000,29.6650,-93.4789,0076,-5.56,2.25,6.0000,292.0000
1982-06-27 15:30:00 UTC,2445148.145833,29.6650,-93.4789,0076,-6.00,0.10,6.0000,271.0000
1982-06-27 16:00:00 UTC,2445148.166667,29.6650,-93.4789,0076,-5.96,-0.73,6.0000,263.0000
1982-06-27 16:30:00 UTC,2445148.187500,29.6650,-93.4789,0076,-4.96,-0.61,5.0000,263.0000
1982-06-27 17:00:00 UTC,2445148.208333,29.6650,-93.4789,0076,-5.44,-2.54,6.0000,245.0000
1982-06-27 17:30:00 UTC,2445148.229167,29.6650,-93.4789,0076,-6.04,-5.25,8.0000,229.0000
1982-06-27 18:00:00 UTC,2445148.250000,29.6650,-93.4789,0076,-5.59,-4.21,7.0000,233.0000
1982-06-27 18:30:00 UTC,2445148.270833,29.6650,-93.4789,0076,-5.80,-1.55,6.0000,255.0000
1982-06-27 19:00:00 UTC,2445148.291667,29.6650,-93.4789,0076,-7.96,0.84,8.0000,276.0000
1982-06-27 19:30:00 UTC,2445148.312500,29.6650,-93.4789,0076,-9.71,5.16,11.0000,298.0000
1982-06-27 20:00:00 UTC,2445148.333333,29.6650,-93.4789,0076,-7.78,7.78,11.0000,315.0000
1982-06-27 20:30:00 UTC,2445148.354167,29.6650,-93.4789,0076,-5.33,9.62,11.0000,331.0000
1982-06-27 21:00:00 UTC,2445148.375000,29.6650,-93.4789,0076,-2.92,12.67,13.0000,347.0000
1982-06-27 21:30:00 UTC,2445148.395833,29.6650,-93.4789,0076,-0.26,15.00,15.0000,359.0000
1982-06-27 22:00:00 UTC,2445148.416667,29.6650,-93.4789,0076,2.78,15.76,16.0000,10.0000
1982-06-27 22:30:00 UTC,2445148.437500,29.6650,-93.4789,0076,3.74,17.61,18.0000,12.0000
1982-06-27 23:00:00 UTC,2445148.458333,29.6650,-93.4789,0076,2.97,18.77,19.0000,9.0000
1982-06-27 23:30:00 UTC,2445148.479167,29.6650,-93.4789,0076,2.32,18.86,19.0000,7.0000
1982-06-28 00:00:00 UTC,2445148.500000,29.6650,-93.4789,0076,2.82,17.78,18.0000,9.0000
1982-06-28 00:30:00 UTC,2445148.520833,29.6650,-93.4789,0076,3.53,16.63,17.0000,12.0000
1982-06-28 01:00:00 UTC,2445148.541667,29.6650,-93.4789,0076,5.21,15.13,16.0000,19.0000
1982-06-28 01:30:00 UTC,2445148.562500,29.6650,-93.4789,0076,7.50,12.99,15.0000,30.0000
1982-06-28 02:00:00 UTC,2445148.583333,29.6650,-93.4789,0076,9.18,10.57,14.0000,41.0000
1982-06-28 02:30:00 UTC,2445148.604167,29.6650,-93.4789,0076,10.78,7.27,13.0000,56.0000
1982-06-28 03:00:00 UTC,2445148.625000,29.6650,-93.4789,0076,11.35,3.91,12.0000,71.0000
1982-06-28 03:30:00 UTC,2445148.645833,29.6650,-93.4789,0076,10.89,1.53,11.0000,82.0000
1982-06-28 04:00:00 UTC,2445148.666667,29.6650,-93.4789,0076,8.80,-1.87,9.0000,102.0000
1982-06-28 04:30:00 UTC,2445148.687500,29.6650,-93.4789,0076,8.29,-5.59,10.0000,124.0000
1982-06-28 05:00:00 UTC,2445148.708333,29.6650,-93.4789,0076,9.58,-7.22,12.0000,127.0000
1982-06-28 05:30:00 UTC,2445148.729167,29.6650,-93.4789,0076,9.95,-6.71,12.0000,124.0000
1982-06-28 06:00:00 UTC,2445148.750000,29.6650,-93.4789,0076,10.52,-7.64,13.0000,126.0000
1982-06-28 06:30:00 UTC,2445148.770833,29.6650,-93.4789,0076,9.51,-8.87,13.0000,133.0000
1982-06-28 07:00:00 UTC,2445148.791667,29.6650,-93.4789,0076,9.55,-10.24,14.0000,137.0000
1982-06-28 07:30:00 UTC,2445148.812500,29.6650,-93.4789,0076,9.19,-9.19,13.0000,135.0000
1982-06-28 08:00:00 UTC,2445148.833333,29.6650,-93.4789,0076,9.81,-8.53,13.0000,131.0000
1982-06-28 08:30:00 UTC,2445148.854167,29.6650,-93.4789,0076,9.37,-10.40,14.0000,138.0000
1982-06-28 09:00:00 UTC,2445148.875000,29.6650,-93.4789,0076,6.57,-12.36,14.0000,152.0000
1982-06-28 09:30:00 UTC,2445148.895833,29.6650,-93.4789,0076,2.29,-11.78,12.0000,169.0000
1982-06-28 10:00:00 UTC,2445148.916667,29.6650,-93.4789,0076,-2.08,-9.78,10.0000,192.0000
1982-06-28 10:30:00 UTC,2445148.937500,29.6650,-93.4789,0076,-5.59,-8.29,10.0000,214.0000
1982-06-28 11:00:00 UTC,2445148.958333,29.6650,-93.4789,0076,-9.95,-6.71,12.0000,236.0000
1982-06-28 11:30:00 UTC,2445148.979167,29.6650,-93.4789,0076,-14.00,-5.38,15.0000,249.0000
1982-06-28 12:00:00 UTC,2445149.000000,29.6650,-93.4789,0076,-15.28,-7.45,17.0000,244.0000
1982-06-28 12:30:00 UTC,2445149.020833,29.6650,-93.4789,0076,-14.38,-10.83,18.0000,233.0000
1982-06-28 13:00:00 UTC,2445149.041667,29.6650,-93.4789,0076,-10.97,-10.23,15.0000,227.0000
1982-06-28 13:30:00 UTC,2445149.062500,29.6650,-93.4789,0076,-7.46,-10.65,13.0000,215.0000
1982-06-28 14:00:00 UTC,2445149.083333,29.6650,-93.4789,0076,-2.86,-14.72,15.0000,191.0000
1982-06-28 14:30:00 UTC,2445149.104167,29.6650,-93.4789,0076,0.99,-18.97,19.0000,177.0000
1982-06-28 15:00:00 UTC,2445149.125000,29.6650,-93.4789,0076,2.97,-18.77,19.0000,171.0000
1982-06-28 15:30:00 UTC,2445149.145833,29.6650,-93.4789,0076,3.24,-16.69,17.0000,169.0000
1982-06-28 16:00:00 UTC,2445149.166667,29.6650,-93.4789,0076,2.23,-15.84,16.0000,172.0000
1982-06-28 16:30:00 UTC,2445149.187500,29.6650,-93.4789,0076,1.95,-13.86,14.0000,172.0000
1982-06-28 17:00:00 UTC,2445149.208333,29.6650,-93.4789,0076,5.29,-11.88,13.0000,156.0000
1982-06-28 17:30:00 UTC,2445149.229167,29.6650,-93.4789,0076,8.60,-12.29,15.0000,145.0000
1982-06-28 18:00:00 UTC,2445149.250000,29.6650,-93.4789,0076,9.51,-14.09,17.0000,146.0000
1982-06-28 18:30:00 UTC,2445149.270833,29.6650,-93.4789,0076,8.24,-14.87,17.0000,151.0000
1982-06-28 19:00:00 UTC,2445149.291667,29.6650,-93.4789,0076,7.51,-14.13,16.0000,152.0000
1982-06-28 19:30:00 UTC,2445149.312500,29.6650,-93.4789,0076,6.57,-12.36,14.0000,152.0000
1982-06-28 20:00:00 UTC,2445149.333333,29.6650,-93.4789,0076,6.18,-10.29,12.0000,149.0000
1982-06-28 20:30:00 UTC,2445149.354167,29.6650,-93.4789,0076,7.71,-9.19,12.0000,140.0000
1982-06-28 21:00:00 UTC,2445149.375000,29.6650,-93.4789,0076,8.34,-8.63,12.0000,136.0000
1982-06-28 21:30:00 UTC,2445149.395833,29.6650,-93.4789,0076,6.88,-9.83,12.0000,145.0000
1982-06-28 22:00:00 UTC,2445149.416667,29.6650,-93.4789,0076,2.76,-9.61,10.0000,164.0000
1982-06-28 22:30:00 UTC,2445149.437500,29.6650,-93.4789,0076,-1.57,-6.82,7.0000,193.0000
1982-06-28 23:00:00 UTC,2445149.458333,29.6650,-93.4789,0076,-3.35,-3.72,5.0000,222.0000
1982-06-28 23:30:00 UTC,2445149.479167,29.6650,-93.4789,0076,-1.00,-1.73,2.0000,210.0000
1982-06-29 00:00:00 UTC,2445149.500000,29.6650,-93.4789,0076,1.85,-2.36,3.0000,142.0000
1982-06-29 00:30:00 UTC,2445149.520833,29.6650,-93.4789,0076,3.44,-4.91,6.0000,145.0000
1982-06-29 01:00:00 UTC,2445149.541667,29.6650,-93.4789,0076,3.23,-8.40,9.0000,159.0000
1982-06-29 01:30:00 UTC,2445149.562500,29.6650,-93.4789,0076,0.00,-9.00,9.0000,180.0000
1982-06-29 02:00:00 UTC,2445149.583333,29.6650,-93.4789,0076,-1.87,-8.80,9.0000,192.0000
1982-06-29 02:30:00 UTC,2445149.604167,29.6650,-93.4789,0076,-2.48,-8.65,9.0000,196.0000
1982-06-29 03:00:00 UTC,2445149.625000,29.6650,-93.4789,0076,-2.39,-6.58,7.0000,200.0000
1982-06-29 03:30:00 UTC,2445149.645833,29.6650,-93.4789,0076,0.97,-6.93,7.0000,172.0000
1982-06-29 04:00:00 UTC,2445149.666667,29.6650,-93.4789,0076,7.31,-6.82,10.0000,133.0000
1982-06-29 04:30:00 UTC,2445149.687500,29.6650,-93.4789,0076,11.88,-5.29,13.0000,114.0000
1982-06-29 05:00:00 UTC,2445149.708333,29.6650,-93.4789,0076,12.84,-2.03,13.0000,99.0000
1982-06-29 05:30:00 UTC,2445149.729167,29.6650,-93.4789,0076,10.98,0.58,11.0000,87.0000
1982-06-29 06:00:00 UTC,2445149.750000,29.6650,-93.4789,0076,9.78,2.08,10.0000,78.0000
1982-06-29 06:30:00 UTC,2445149.770833,29.6650,-93.4789,0076,11.69,2.70,12.0000,77.0000
1982-06-29 07:00:00 UTC,2445149.791667,29.6650,-93.4789,0076,14.62,3.37,15.0000,77.0000
1982-06-29 07:30:00 UTC,2445149.812500,29.6650,-93.4789,0076,15.45,4.14,16.0000,75.0000
1982-06-29 08:00:00 UTC,2445149.833333,29.6650,-93.4789,0076,14.49,3.88,15.0000,75.0000
1982-06-29 08:30:00 UTC,2445149.854167,29.6650,-93.4789,0076,12.43,3.80,13.0000,73.0000
1982-06-29 09:00:00 UTC,2445149.875000,29.6650,-93.4789,0076,10.69,5.45,12.0000,63.0000
1982-06-29 09:30:00 UTC,2445149.895833,29.6650,-93.4789,0076,10.29,6.18,12.0000,59.0000
1982-06-29 10:00:00 UTC,2445149.916667,29.6650,-93.4789,0076,12.98,5.24,14.0000,68.0000
1982-06-29 10:30:00 UTC,2445149.937500,29.6650,-93.4789,0076,15.65,3.33,16.0000,78.0000
1982-06-29 11:00:00 UTC,2445149.958333,29.6650,-93.4789,0076,17.87,2.19,18.0000,83.0000
1982-06-29 11:30:00 UTC,2445149.979167,29.6650,-93.4789,0076,18.95,1.33,19.0000,86.0000
1982-06-29 12:00:00 UTC,2445150.000000,29.6650,-93.4789,0076,17.99,-0.63,18.0000,92.0000
1982-06-29 12:30:00 UTC,2445150.020833,29.6650,-93.4789,0076,15.84,-2.23,16.0000,98.0000
1982-06-29 13:00:00 UTC,2445150.041667,29.6650,-93.4789,0076,13.74,-2.67,14.0000,101.0000
1982-06-29 13:30:00 UTC,2445150.062500,29.6650,-93.4789,0076,13.74,-2.67,14.0000,101.0000
1982-06-29 14:00:00 UTC,2445150.083333,29.6650,-93.4789,0076,15.80,-2.50,16.0000,99.0000
1982-06-29 14:30:00 UTC,2445150.104167,29.6650,-93.4789,0076,16.91,-1.78,17.0000,96.0000
1982-06-29 15:00:00 UTC,2445150.125000,29.6650,-93.4789,0076,15.80,-2.50,16.0000,99.0000
1982-06-29 15:30:00 UTC,2445150.145833,29.6650,-93.4789,0076,13.24,-4.56,14.0000,109.0000
1982-06-29 16:00:00 UTC,2445150.166667,29.6650,-93.4789,0076,12.24,-6.79,14.0000,119.0000
1982-06-29 16:30:00 UTC,2445150.187500,29.6650,-93.4789,0076,12.14,-8.82,15.0000,126.0000
1982-06-29 17:00:00 UTC,2445150.208333,29.6650,-93.4789,0076,13.11,-9.18,16.0000,125.0000
1982-06-29 17:30:00 UTC,2445150.229167,29.6650,-93.4789,0076,13.99,-7.76,16.0000,119.0000
1982-06-29 18:00:00 UTC,2445150.250000,29.6650,-93.4789,0076,14.73,-6.25,16.0000,113.0000
1982-06-29 18:30:00 UTC,2445150.270833,29.6650,-93.4789,0076,13.31,-4.33,14.0000,108.0000
1982-06-29 19:00:00 UTC,2445150.291667,29.6650,-93.4789,0076,12.22,-4.45,13.0000,110.0000
1982-06-29 19:30:00 UTC,2445150.312500,29.6650,-93.4789,0076,10.60,-5.63,12.0000,118.0000
1982-06-29 20:00:00 UTC,2445150.333333,29.6650,-93.4789,0076,9.80,-4.99,11.0000,117.0000
1982-06-29 20:30:00 UTC,2445150.354167,29.6650,-93.4789,0076,8.51,-2.93,9.0000,109.0000
1982-06-29 21:00:00 UTC,2445150.375000,29.6650,-93.4789,0076,8.86,-1.56,9.0000,100.0000
1982-06-29 21:30:00 UTC,2445150.395833,29.6650,-93.4789,0076,9.99,-0.52,10.0000,93.0000
1982-06-29 22:00:00 UTC,2445150.416667,29.6650,-93.4789,0076,11.91,-1.46,12.0000,97.0000
1982-06-29 22:30:00 UTC,2445150.437500,29.6650,-93.4789,0076,13.74,-2.67,14.0000,101.0000
1982-06-29 23:00:00 UTC,2445150.458333,29.6650,-93.4789,0076,13.95,-1.22,14.0000,95.0000
1982-06-29 23:30:00 UTC,2445150.479167,29.6650,-93.4789,0076,12.80,2.26,13.0000,80.0000
1982-06-30 00:00:00 UTC,2445150.500000,29.6650,-93.4789,0076,12.89,5.47,14.0000,67.0000
1982-06-30 00:30:00 UTC,2445150.520833,29.6650,-93.4789,0076,14.73,6.25,16.0000,67.0000
1982-06-30 01:00:00 UTC,2445150.541667,29.6650,-93.4789,0076,15.30,4.68,16.0000,73.0000
1982-06-30 01:30:00 UTC,2445150.562500,29.6650,-93.4789,0076,15.52,3.87,16.0000,76.0000
1982-06-30 02:00:00 UTC,2445150.583333,29.6650,-93.4789,0076,14.49,3.88,15.0000,75.0000
1982-06-30 02:30:00 UTC,2445150.604167,29.6650,-93.4789,0076,13.52,3.62,14.0000,75.0000
1982-06-30 03:00:00 UTC,2445150.625000,29.6650,-93.4789,0076,12.29,4.23,13.0000,71.0000
1982-06-30 03:30:00 UTC,2445150.645833,29.6650,-93.4789,0076,10.05,4.47,11.0000,66.0000
1982-06-30 04:00:00 UTC,2445150.666667,29.6650,-93.4789,0076,10.05,4.47,11.0000,66.0000
1982-06-30 04:30:00 UTC,2445150.687500,29.6650,-93.4789,0076,12.89,5.47,14.0000,67.0000
1982-06-30 05:00:00 UTC,2445150.708333,29.6650,-93.4789,0076,14.94,5.73,16.0000,69.0000
1982-06-30 05:30:00 UTC,2445150.729167,29.6650,-93.4789,0076,15.38,4.41,16.0000,74.0000
1982-06-30 06:00:00 UTC,2445150.750000,29.6650,-93.4789,0076,14.89,1.83,15.0000,83.0000
1982-06-30 06:30:00 UTC,2445150.770833,29.6650,-93.4789,0076,14.96,-1.05,15.0000,94.0000
1982-06-30 07:00:00 UTC,2445150.791667,29.6650,-93.4789,0076,16.74,-2.95,17.0000,100.0000
1982-06-30 07:30:00 UTC,2445150.812500,29.6650,-93.4789,0076,18.77,-2.97,19.0000,99.0000
1982-06-30 08:00:00 UTC,2445150.833333,29.6650,-93.4789,0076,17.90,-1.88,18.0000,96.0000
1982-06-30 08:30:00 UTC,2445150.854167,29.6650,-93.4789,0076,16.00,0.00,16.0000,90.0000
1982-06-30 09:00:00 UTC,2445150.875000,29.6650,-93.4789,0076,17.98,0.94,18.0000,87.0000
1982-06-30 09:30:00 UTC,2445150.895833,29.6650,-93.4789,0076,18.95,1.33,19.0000,86.0000
1982-06-30 10:00:00 UTC,2445150.916667,29.6650,-93.4789,0076,18.95,1.33,19.0000,86.0000
1982-06-30 10:30:00 UTC,2445150.937500,29.6650,-93.4789,0076,17.99,0.63,18.0000,88.0000
1982-06-30 11:00:00 UTC,2445150.958333,29.6650,-93.4789,0076,18.00,-0.31,18.0000,91.0000
1982-06-30 11:30:00 UTC,2445150.979167,29.6650,-93.4789,0076,16.98,-0.89,17.0000,93.0000
1982-06-30 12:00:00 UTC,2445151.000000,29.6650,-93.4789,0076,14.98,-0.79,15.0000,93.0000
1982-06-30 12:30:00 UTC,2445151.020833,29.6650,-93.4789,0076,13.97,-0.98,14.0000,94.0000
1982-06-30 13:00:00 UTC,2445151.041667,29.6650,-93.4789,0076,12.95,-1.13,13.0000,95.0000
1982-06-30 13:30:00 UTC,2445151.062500,29.6650,-93.4789,0076,12.90,-1.58,13.0000,97.0000
1982-06-30 14:00:00 UTC,2445151.083333,29.6650,-93.4789,0076,11.69,-2.70,12.0000,103.0000
1982-06-30 14:30:00 UTC,2445151.104167,29.6650,-93.4789,0076,10.46,-3.40,11.0000,108.0000
1982-06-30 15:00:00 UTC,2445151.125000,29.6650,-93.4789,0076,8.91,-4.54,10.0000,117.0000
1982-06-30 15:30:00 UTC,2445151.145833,29.6650,-93.4789,0076,7.55,-6.56,10.0000,131.0000
1982-06-30 16:00:00 UTC,2445151.166667,29.6650,-93.4789,0076,4.70,-6.47,8.0000,144.0000
1982-06-30 16:30:00 UTC,2445151.187500,29.6650,-93.4789,0076,2.35,-4.41,5.0000,152.0000
1982-06-30 17:00:00 UTC,2445151.208333,29.6650,-93.4789,0076,0.73,-2.91,3.0000,166.0000
1982-06-30 17:30:00 UTC,2445151.229167,29.6650,-93.4789,0076,0.52,-4.97,5.0000,174.0000
1982-06-30 18:00:00 UTC,2445151.250000,29.6650,-93.4789,0076,1.75,-5.74,6.0000,163.0000
1982-06-30 18:30:00 UTC,2445151.270833,29.6650,-93.4789,0076,3.66,-3.41,5.0000,133.0000
1982-06-30 19:00:00 UTC,2445151.291667,29.6650,-93.4789,0076,6.39,-2.85,7.0000,114.0000
1982-06-30 19:30:00 UTC,2445151.312500,29.6650,-93.4789,0076,8.09,-3.95,9.0000,116.0000
1982-06-30 20:00:00 UTC,2445151.333333,29.6650,-93.4789,0076,9.33,-5.83,11.0000,122.0000
1982-06-30 20:30:00 UTC,2445151.354167,29.6650,-93.4789,0076,9.33,-7.55,12.0000,129.0000
1982-06-30 21:00:00 UTC,2445151.375000,29.6650,-93.4789,0076,7.43,-6.69,10.0000,132.0000
1982-06-30 21:30:00 UTC,2445151.395833,29.6650,-93.4789,0076,7.00,-3.88,8.0000,119.0000
1982-06-30 22:00:00 UTC,2445151.416667,29.6650,-93.4789,0076,7.85,-1.53,8.0000,101.0000
1982-06-30 22:30:00 UTC,2445151.437500,29.6650,-93.4789,0076,9.00,0.00,9.0000,90.0000
1982-06-30 23:00:00 UTC,2445151.458333,29.6650,-93.4789,0076,9.88,1.56,10.0000,81.0000
1982-06-30 23:30:00 UTC,2445151.479167,29.6650,-93.4789,0076,9.40,3.42,10.0000,70.0000
1982-07-01 00:00:00 UTC,2445151.500000,29.6650,-93.4789,0076,8.75,4.85,10.0000,61.0000
1982-07-01 00:30:00 UTC,2445151.520833,29.6650,-93.4789,0076,7.28,5.29,9.0000,54.0000
1982-07-01 01:00:00 UTC,2445151.541667,29.6650,-93.4789,0076,7.07,7.07,10.0000,45.0000
1982-07-01 01:30:00 UTC,2445151.562500,29.6650,-93.4789,0076,8.70,9.66,13.0000,42.0000
1982-07-01 02:00:00 UTC,2445151.583333,29.6650,-93.4789,0076,9.55,10.24,14.0000,43.0000
1982-07-01 02:30:00 UTC,2445151.604167,29.6650,-93.4789,0076,10.04,11.15,15.0000,42.0000
1982-07-01 03:00:00 UTC,2445151.625000,29.6650,-93.4789,0076,8.87,9.51,13.0000,43.0000
1982-07-01 03:30:00 UTC,2445151.645833,29.6650,-93.4789,0076,7.64,7.91,11.0000,44.0000
1982-07-01 04:00:00 UTC,2445151.666667,29.6650,-93.4789,0076,6.56,7.55,10.0000,41.0000
1982-07-01 04:30:00 UTC,2445151.687500,29.6650,-93.4789,0076,8.04,7.50,11.0000,47.0000
1982-07-01 05:00:00 UTC,2445151.708333,29.6650,-93.4789,0076,10.60,5.63,12.0000,62.0000
1982-07-01 05:30:00 UTC,2445151.729167,29.6650,-93.4789,0076,11.41,3.71,12.0000,72.0000
1982-07-01 06:00:00 UTC,2445151.750000,29.6650,-93.4789,0076,11.74,2.49,12.0000,78.0000
1982-07-01 06:30:00 UTC,2445151.770833,29.6650,-93.4789,0076,12.00,0.00,12.0000,90.0000
1982-07-01 07:00:00 UTC,2445151.791667,29.6650,-93.4789,0076,12.93,-1.36,13.0000,96.0000
1982-07-01 07:30:00 UTC,2445151.812500,29.6650,-93.4789,0076,14.67,-3.12,15.0000,102.0000
1982-07-01 08:00:00 UTC,2445151.833333,29.6650,-93.4789,0076,15.41,-7.18,17.0000,115.0000
1982-07-01 08:30:00 UTC,2445151.854167,29.6650,-93.4789,0076,13.58,-10.23,17.0000,127.0000
1982-07-01 09:00:00 UTC,2445151.875000,29.6650,-93.4789,0076,11.31,-11.31,16.0000,135.0000